| time (UTC) | temp C | wind direction | speed KPH | gust KPH | rain 1hr cm | rain 24hr cm | rain mn cm | humidity % | barometer mb |
| 20260505060044 | 10 | 0 | 0.0 | 3.2 | 0.00 | 0.00 | 0.00 | 78 | 1012.2 |
| 20260505054601 | 10 | 253 | 0.0 | 3.2 | 0.00 | 0.00 | 0.00 | 77 | 1012.2 |
| 20260505053036 | 10 | 253 | 1.6 | 4.8 | 0.00 | 0.00 | 0.00 | 76 | 1012.3 |
| 20260505051542 | 10 | 253 | 0.0 | 4.8 | 0.00 | 0.00 | 0.00 | 76 | 1012.4 |
| 20260505041537 | 10 | 253 | 1.6 | 4.8 | 0.00 | 0.00 | 0.00 | 75 | 1012.5 |
| 20260505040046 | 11 | 253 | 1.6 | 4.8 | 0.00 | 0.00 | 0.00 | 74 | 1012.6 |
| 20260505034541 | 11 | 253 | 1.6 | 8.0 | 0.00 | 0.00 | 0.00 | 74 | 1012.5 |
| 20260505033042 | 11 | 0 | 1.6 | 4.8 | 0.00 | 0.00 | 0.00 | 74 | 1012.5 |
| 20260505031553 | 10 | 253 | 0.0 | 6.4 | 0.00 | 0.00 | 0.00 | 75 | 1012.4 |
| 20260505030038 | 10 | 253 | 1.6 | 3.2 | 0.00 | 0.00 | 0.00 | 74 | 1012.5 |
| 20260505024540 | 10 | 253 | 0.0 | 3.2 | 0.00 | 0.00 | 0.00 | 74 | 1012.5 |
| 20260505023047 | 11 | 253 | 0.0 | 3.2 | 0.00 | 0.00 | 0.00 | 72 | 1012.5 |
| 20260505021542 | 11 | 253 | 0.0 | 3.2 | 0.00 | 0.00 | 0.00 | 70 | 1012.6 |
| 20260505020041 | 11 | 253 | 3.2 | 8.0 | 0.00 | 0.00 | 0.00 | 69 | 1012.6 |
| 20260505014542 | 12 | 253 | 1.6 | 11.3 | 0.00 | 0.00 | 0.00 | 68 | 1012.5 |
| 20260505013037 | 12 | 253 | 1.6 | 8.0 | 0.00 | 0.00 | 0.00 | 66 | 1012.3 |
| 20260505011544 | 12 | 253 | 1.6 | 8.0 | 0.00 | 0.00 | 0.00 | 65 | 1012.2 |
| 20260505010035 | 12 | 253 | 3.2 | 8.0 | 0.00 | 0.00 | 0.00 | 64 | 1011.9 |
| 20260505004548 | 12 | 253 | 3.2 | 9.7 | 0.00 | 0.00 | 0.00 | 62 | 1011.7 |
| 20260505003043 | 13 | 253 | 1.6 | 8.0 | 0.00 | 0.00 | 0.00 | 61 | 1011.5 |
| 20260505001542 | 13 | 253 | 1.6 | 6.4 | 0.00 | 0.00 | 0.00 | 59 | 1011.4 |
| 20260505000057 | 14 | 240 | 1.6 | 9.7 | 0.00 | 0.00 | 0.00 | 57 | 1011.0 |
| 20260504234538 | 15 | 240 | 1.6 | 9.7 | 0.00 | 0.00 | 0.00 | 55 | 1010.8 |
| 20260504233042 | 15 | 240 | 1.6 | 11.3 | 0.00 | 0.00 | 0.00 | 53 | 1010.5 |
| 20260504231541 | 16 | 240 | 4.8 | 14.5 | 0.00 | 0.00 | 0.00 | 51 | 1010.2 |
| 20260504230057 | 16 | 237 | 1.6 | 11.3 | 0.00 | 0.00 | 0.00 | 51 | 1010.1 |
| 20260504224538 | 16 | 228 | 3.2 | 8.0 | 0.00 | 0.00 | 0.00 | 50 | 1010.1 |
| 20260504223040 | 17 | 226 | 4.8 | 14.5 | 0.00 | 0.00 | 0.00 | 47 | 1010.0 |
| 20260504221549 | 17 | 237 | 4.8 | 17.7 | 0.00 | 0.00 | 0.00 | 46 | 1010.1 |
| 20260504220044 | 17 | 229 | 4.8 | 11.3 | 0.00 | 0.00 | 0.00 | 45 | 1009.9 |
| 20260504214540 | 17 | 205 | 6.4 | 20.9 | 0.00 | 0.00 | 0.00 | 44 | 1010.0 |
| 20260504213044 | 17 | 242 | 4.8 | 14.5 | 0.00 | 0.00 | 0.00 | 44 | 1010.0 |
| 20260504211545 | 18 | 224 | 6.4 | 12.9 | 0.00 | 0.00 | 0.00 | 42 | 1010.0 |
| 20260504210041 | 18 | 234 | 6.4 | 12.9 | 0.00 | 0.00 | 0.00 | 39 | 1009.8 |
| 20260504204538 | 18 | 234 | 1.6 | 19.3 | 0.00 | 0.00 | 0.00 | 40 | 1009.8 |
| 20260504203049 | 18 | 239 | 4.8 | 12.9 | 0.00 | 0.00 | 0.00 | 39 | 1010.0 |
| 20260504201542 | 18 | 231 | 3.2 | 12.9 | 0.00 | 0.00 | 0.00 | 39 | 1010.0 |
| 20260504200041 | 19 | 221 | 3.2 | 25.7 | 0.00 | 0.00 | 0.00 | 36 | 1010.1 |
| 20260504194541 | 20 | 236 | 4.8 | 17.7 | 0.00 | 0.00 | 0.00 | 34 | 1010.0 |
| 20260504193041 | 19 | 262 | 3.2 | 22.5 | 0.00 | 0.00 | 0.00 | 35 | 1010.0 |
| 20260504191544 | 19 | 257 | 3.2 | 14.5 | 0.00 | 0.00 | 0.00 | 36 | 1010.0 |
| 20260504190036 | 19 | 257 | 6.4 | 12.9 | 0.00 | 0.00 | 0.00 | 35 | 1010.2 |
| 20260504184543 | 19 | 285 | 4.8 | 16.1 | 0.00 | 0.00 | 0.00 | 35 | 1010.2 |
| 20260504183041 | 19 | 273 | 9.7 | 20.9 | 0.00 | 0.00 | 0.00 | 35 | 1010.6 |
| 20260504181543 | 19 | 252 | 4.8 | 14.5 | 0.00 | 0.00 | 0.00 | 36 | 1010.6 |
| 20260504180041 | 18 | 233 | 6.4 | 16.1 | 0.00 | 0.00 | 0.00 | 34 | 1010.8 |
| 20260504174535 | 18 | 200 | 4.8 | 19.3 | 0.00 | 0.00 | 0.00 | 34 | 1011.0 |
| 20260504173042 | 18 | 233 | 4.8 | 22.5 | 0.00 | 0.00 | 0.00 | 34 | 1011.0 |
| 20260504171542 | 18 | 265 | 4.8 | 16.1 | 0.00 | 0.00 | 0.00 | 39 | 1011.1 |
| 20260504081541 | 8 | 295 | 0.0 | 6.4 | 0.00 | 0.00 | 0.00 | 53 | 1012.1 |